| time (UTC) | temp C | wind direction | speed KPH | gust KPH | rain 1hr cm | rain 24hr cm | rain mn cm | humidity % | barometer mb |
| 20260831210003 | 23 | 77 | 0.0 | 8.0 | 0.00 | 1.88 | 1.57 | 95 | 1013.4 |
| 20260831204502 | 23 | 101 | 0.0 | 6.4 | 0.00 | 1.96 | 1.57 | 96 | 1013.2 |
| 20260831203002 | 22 | 150 | 1.6 | 4.8 | 0.00 | 1.96 | 1.57 | 96 | 1012.9 |
| 20260831201502 | 22 | 150 | 0.0 | 3.2 | 0.00 | 1.96 | 1.57 | 96 | 1013.4 |
| 20260831200002 | 22 | 150 | 0.0 | 3.2 | 0.03 | 1.96 | 1.57 | 96 | 1013.6 |
| 20260831194502 | 22 | 150 | 0.0 | 1.6 | 0.03 | 2.16 | 1.57 | 96 | 1014.0 |
| 20260831193001 | 22 | 150 | 0.0 | 1.6 | 0.05 | 2.16 | 1.57 | 95 | 1013.9 |
| 20260831191502 | 22 | 150 | 0.0 | 8.0 | 0.08 | 2.16 | 1.57 | 96 | 1014.0 |
| 20260831190002 | 22 | 152 | 4.8 | 11.3 | 0.05 | 2.13 | 1.55 | 95 | 1014.1 |
| 20260831184502 | 22 | 158 | 0.0 | 0.0 | 0.05 | 2.36 | 1.55 | 95 | 1015.1 |
| 20260831183002 | 22 | 158 | 0.0 | 0.0 | 0.03 | 2.34 | 1.52 | 95 | 1015.5 |
| 20260831181502 | 22 | 158 | 0.0 | 3.2 | 0.00 | 2.31 | 1.50 | 94 | 1015.6 |
| 20260831180002 | 22 | 158 | 0.0 | 3.2 | 0.03 | 2.31 | 1.50 | 95 | 1015.6 |
| 20260831174502 | 23 | 158 | 0.0 | 0.0 | 0.03 | 2.44 | 1.50 | 96 | 1015.7 |
| 20260831173002 | 22 | 158 | 0.0 | 0.0 | 0.05 | 2.44 | 1.50 | 96 | 1015.3 |
| 20260831171504 | 21 | 158 | 0.0 | 0.0 | 0.05 | 2.44 | 1.50 | 96 | 1015.4 |
| 20260831170003 | 21 | 158 | 0.0 | 0.0 | 0.08 | 2.41 | 1.45 | 96 | 1015.9 |
| 20260831164502 | 21 | 158 | 0.0 | 0.0 | 0.10 | 2.82 | 1.45 | 96 | 1016.1 |
| 20260831163002 | 21 | 158 | 0.0 | 0.0 | 0.08 | 2.79 | 1.42 | 96 | 1016.2 |
| 20260831161502 | 21 | 158 | 0.0 | 3.2 | 0.20 | 2.79 | 1.42 | 96 | 1016.6 |
| 20260831160004 | 21 | 158 | 0.0 | 0.0 | 0.56 | 2.74 | 1.40 | 96 | 1016.8 |
| 20260831154502 | 21 | 158 | 0.0 | 0.0 | 0.56 | 3.20 | 1.37 | 96 | 1016.7 |
| 20260831153005 | 21 | 158 | 0.0 | 0.0 | 0.58 | 3.20 | 1.37 | 95 | 1016.2 |
| 20260831151507 | 22 | 158 | 1.6 | 6.4 | 0.43 | 3.05 | 1.22 | 95 | 1015.8 |
| 20260831150003 | 22 | 159 | 0.0 | 0.0 | 0.05 | 2.67 | 0.84 | 95 | 1015.6 |
| 20260831144509 | 23 | 159 | 0.0 | 0.0 | 0.00 | 2.72 | 0.79 | 95 | 1015.4 |
| 20260831143003 | 22 | 159 | 0.0 | 3.2 | 0.00 | 2.72 | 0.79 | 96 | 1015.1 |
| 20260831141507 | 22 | 160 | 0.0 | 4.8 | 0.00 | 2.72 | 0.79 | 96 | 1015.0 |
| 20260831140003 | 22 | 160 | 3.2 | 8.0 | 0.00 | 2.72 | 0.79 | 97 | 1015.1 |
| 20260831134503 | 22 | 176 | 0.0 | 6.4 | 0.00 | 2.77 | 0.79 | 97 | 1015.0 |
| 20260831133003 | 21 | 176 | 0.0 | 3.2 | 0.00 | 2.77 | 0.79 | 97 | 1014.6 |
| 20260831131505 | 21 | 176 | 0.0 | 1.6 | 0.00 | 2.77 | 0.79 | 97 | 1014.5 |
| 20260831130004 | 21 | 176 | 0.0 | 0.0 | 0.03 | 2.77 | 0.79 | 97 | 1014.7 |
| 20260831124503 | 20 | 176 | 0.0 | 1.6 | 0.05 | 3.02 | 0.79 | 97 | 1014.7 |
| 20260831123003 | 20 | 176 | 0.0 | 1.6 | 0.13 | 3.02 | 0.79 | 97 | 1014.8 |
| 20260831121507 | 20 | 176 | 0.0 | 3.2 | 0.13 | 3.02 | 0.79 | 97 | 1014.4 |
| 20260831120003 | 20 | 176 | 0.0 | 6.4 | 0.13 | 3.00 | 0.76 | 97 | 1014.4 |
| 20260831114503 | 20 | 164 | 0.0 | 8.0 | 0.25 | 3.02 | 0.71 | 97 | 1015.1 |
| 20260831113004 | 20 | 164 | 0.0 | 0.0 | 0.30 | 2.92 | 0.66 | 97 | 1015.4 |
| 20260831111511 | 20 | 164 | 0.0 | 0.0 | 0.38 | 2.92 | 0.66 | 97 | 1015.4 |
| 20260831110005 | 20 | 164 | 0.0 | 0.0 | 0.36 | 2.90 | 0.64 | 97 | 1015.5 |
| 20260831104503 | 20 | 164 | 0.0 | 0.0 | 0.20 | 2.77 | 0.48 | 97 | 1015.4 |
| 20260831103004 | 20 | 164 | 0.0 | 0.0 | 0.08 | 2.62 | 0.33 | 97 | 1015.3 |
| 20260831101504 | 20 | 164 | 0.0 | 1.6 | 0.03 | 2.57 | 0.28 | 97 | 1015.1 |
| 20260831100008 | 20 | 164 | 0.0 | 1.6 | 0.03 | 2.57 | 0.28 | 96 | 1015.0 |
| 20260831094508 | 20 | 164 | 0.0 | 0.0 | 0.05 | 2.57 | 0.28 | 96 | 1015.0 |
| 20260831093005 | 20 | 164 | 0.0 | 0.0 | 0.03 | 2.54 | 0.25 | 96 | 1014.9 |
| 20260831091504 | 20 | 164 | 0.0 | 0.0 | 0.03 | 2.54 | 0.25 | 96 | 1015.0 |
| 20260831090005 | 20 | 164 | 0.0 | 0.0 | 0.03 | 2.54 | 0.25 | 96 | 1014.8 |
| 20260831084504 | 20 | 164 | 0.0 | 0.0 | 0.00 | 2.51 | 0.23 | 96 | 1015.1 |
| 20260831083015 | 20 | 164 | 0.0 | 1.6 | 0.00 | 2.51 | 0.23 | 96 | 1014.9 |
| 20260831081504 | 20 | 164 | 0.0 | 1.6 | 0.00 | 2.51 | 0.23 | 96 | 1014.7 |
| 20260831080017 | 20 | 164 | 0.0 | 3.2 | 0.00 | 2.51 | 0.23 | 96 | 1014.8 |
| 20260831074504 | 20 | 164 | 0.0 | 1.6 | 0.00 | 2.51 | 0.23 | 96 | 1014.8 |
| 20260831073016 | 20 | 164 | 0.0 | 1.6 | 0.03 | 2.51 | 0.23 | 96 | 1014.9 |
| 20260831071504 | 20 | 164 | 0.0 | 3.2 | 0.05 | 2.51 | 0.23 | 96 | 1015.2 |
| 20260831070005 | 20 | 164 | 0.0 | 1.6 | 0.08 | 2.51 | 0.23 | 96 | 1015.3 |
| 20260831064505 | 19 | 164 | 0.0 | 6.4 | 0.13 | 2.51 | 0.23 | 96 | 1015.3 |
| 20260831063005 | 19 | 164 | 0.0 | 1.6 | 0.20 | 2.49 | 0.20 | 95 | 1015.3 |
| 20260831061505 | 19 | 164 | 0.0 | 6.4 | 0.18 | 2.46 | 0.18 | 95 | 1015.4 |
| 20260831060004 | 19 | 138 | 1.6 | 11.3 | 0.15 | 2.44 | 0.15 | 95 | 1015.6 |
| 20260831054505 | 18 | 169 | 0.0 | 3.2 | 0.10 | 2.39 | 0.10 | 95 | 1015.7 |
| 20260831053008 | 18 | 169 | 0.0 | 4.8 | 0.00 | 2.29 | 0.00 | 94 | 1015.7 |
| 20260831051510 | 18 | 169 | 0.0 | 8.0 | 0.00 | 2.29 | 0.00 | 94 | 1015.6 |
| 20260831050005 | 18 | 188 | 0.0 | 9.7 | 0.00 | 2.29 | 0.00 | 94 | 1015.7 |
| 20260831044512 | 18 | 143 | 0.0 | 6.4 | 0.00 | 2.29 | 0.00 | 94 | 1015.7 |
| 20260831043005 | 18 | 159 | 0.0 | 12.9 | 0.00 | 2.29 | 0.00 | 94 | 1015.7 |
| 20260831041510 | 18 | 129 | 1.6 | 9.7 | 0.00 | 2.29 | 0.00 | 94 | 1015.7 |
| 20260831040006 | 18 | 84 | 0.0 | 11.3 | 0.00 | 2.29 | 0.00 | 94 | 1015.8 |
| 20260831034505 | 18 | 85 | 0.0 | 8.0 | 0.00 | 2.29 | 2.29 | 94 | 1015.6 |
| 20260831033008 | 18 | 94 | 1.6 | 6.4 | 0.00 | 2.29 | 2.29 | 95 | 1015.5 |
| 20260831031505 | 17 | 143 | 0.0 | 4.8 | 0.00 | 2.29 | 2.29 | 95 | 1015.5 |
| 20260831030006 | 17 | 143 | 0.0 | 4.8 | 0.00 | 2.29 | 2.29 | 95 | 1015.4 |
| 20260831024506 | 17 | 143 | 0.0 | 3.2 | 0.00 | 2.29 | 2.29 | 95 | 1015.5 |
| 20260831023005 | 17 | 143 | 0.0 | 3.2 | 0.00 | 2.29 | 2.29 | 95 | 1015.5 |
| 20260831021506 | 17 | 159 | 0.0 | 4.8 | 0.00 | 2.29 | 2.29 | 95 | 1015.4 |
| 20260831020006 | 17 | 140 | 0.0 | 4.8 | 0.00 | 2.29 | 2.29 | 95 | 1015.4 |
| 20260831014506 | 17 | 143 | 0.0 | 4.8 | 0.00 | 2.29 | 2.29 | 95 | 1015.5 |
| 20260831013006 | 17 | 136 | 1.6 | 4.8 | 0.03 | 2.29 | 2.29 | 96 | 1015.6 |
| 20260831011505 | 17 | 138 | 0.0 | 4.8 | 0.05 | 2.29 | 2.29 | 96 | 1015.8 |
| 20260831010006 | 17 | 159 | 1.6 | 6.4 | 0.10 | 2.29 | 2.29 | 96 | 1015.8 |
| 20260831004505 | 18 | 148 | 0.0 | 4.8 | 0.10 | 2.29 | 2.29 | 96 | 1015.7 |
| 20260831003006 | 18 | 148 | 0.0 | 4.8 | 0.18 | 2.26 | 2.26 | 96 | 1015.7 |
| 20260831001506 | 18 | 148 | 1.6 | 8.0 | 0.15 | 2.24 | 2.24 | 96 | 1015.8 |
| 20260831000016 | 18 | 170 | 3.2 | 11.3 | 0.10 | 2.18 | 2.18 | 96 | 1016.1 |
| 20260830234506 | 18 | 71 | 0.0 | 8.0 | 0.13 | 2.18 | 2.18 | 96 | 1016.2 |
| 20260830233006 | 18 | 148 | 1.6 | 16.1 | 0.05 | 2.08 | 2.08 | 96 | 1016.5 |
| 20260830231507 | 18 | 191 | 0.0 | 9.7 | 0.05 | 2.08 | 2.08 | 96 | 1016.1 |
| 20260830230013 | 18 | 156 | 0.0 | 14.5 | 0.08 | 2.08 | 2.08 | 96 | 1016.5 |
| 20260830224507 | 19 | 140 | 1.6 | 4.8 | 0.05 | 2.06 | 2.06 | 97 | 1016.7 |
| 20260830223007 | 19 | 140 | 0.0 | 4.8 | 0.05 | 2.03 | 2.03 | 97 | 1016.9 |
| 20260830221506 | 19 | 140 | 0.0 | 6.4 | 0.05 | 2.03 | 2.03 | 97 | 1016.8 |
| 20260830220007 | 19 | 140 | 0.0 | 0.0 | 0.03 | 2.01 | 2.01 | 97 | 1016.5 |
| 20260830214507 | 19 | 140 | 0.0 | 1.6 | 0.08 | 2.01 | 2.01 | 97 | 1016.0 |
| 20260830213013 | 19 | 140 | 0.0 | 3.2 | 0.05 | 1.98 | 1.98 | 97 | 1015.8 |
| 20260830211507 | 18 | 140 | 0.0 | 9.7 | 0.05 | 1.98 | 1.98 | 96 | 1015.4 |